User: anonymous
Location: Charleston
(38.3500°N, 81.6330°W)
Time: 22:20:24
(UTC-04:00)
Language:

Cosmos 1812 Rocket - Orbit

View from above orbital plane
View from above orbital plane
View from above satellite
View from above satellite

Ground track
Ground track

The orbit data is extracted from the following two-line orbital elements,

1 17296U 87003B   14245.50181201  .00000251  00000-0  28139-4 0  7259
2 17296 082.5270 257.2371 0018299 342.3421 128.3924 14.82664843492141
Epoch (UTC): 02 September 2014 12:02:36
Eccentricity: 0.0018299
inclination: 82.5270°
perigee height: 608 km
apogee height: 634 km
right ascension of ascending node: 257.2371°
argument of perigee: 342.3421°
revolutions per day: 14.82664843
mean anomaly at epoch: 128.3924°
orbit number at epoch: 49214

The dashed part of the orbit path shows where the satellite is in the earth's shadow,  

DLR